Location: Bad Salzschlirf
(50.3750°N, 9.3000°E)
Time: 17:55:58
(UTC+02:00)

ISS - Pass Details

Date: 23 May 2020
Orbit: 417 x 420 km, 51.6° (Epoch: 26 May)

Event Time Altitude Azimuth Distance (km) Brightness Sun altitude
Rises 00:42:09 0° 286° (WNW) 2,369 0.4 -18.5°
Reaches altitude 10° 00:44:16 10° 283° (WNW) 1,503 -0.7 -18.6°
Enters shadow 00:47:18 56° 230° (SW) 506 -3.6 -18.6°
